Home > Weather > Granby > Past weeks

Flag for Canada Past Weather in Granby, Quebec, Canada — Yesterday and Last 2 Weeks

Now
82 °F

Warm.


Feels Like: 83 °F
Forecast: N/A
Wind: 2 mph from West

Location: Frelighsburg

Current Time: Jul 27, 2016 at 5:20:02 PM

Latest Report: Jul 27, 2016 at 5:00 PM


Visibility: N/A

Pressure: 29.85 "Hg

Humidity: 47%

Dew Point: 60 °F

Location of GranbyLocation

Past Weather in Granby — Graph

°F

Granby Temperature Yesterday

Maximum temperature yesterday: 77 °F (at 6:00 PM)
Minimum temperature yesterday: 67 °F (at 4:00 AM)
Average temperature yesterday: 71 °F

High & Low Weather Summary for the Past Weeks

 TemperatureHumidityPressure
High89 °F (Jul 13, 3:00 PM)100% (Jul 16, 9:00 AM)30.20 "Hg (Jul 16, 9:00 AM)
Low52 °F (Jul 20, 6:00 AM)43% (Jul 12, 6:00 PM)29.67 "Hg (Jul 14, 6:00 PM)
Average70 °F75%29.92 "Hg
* Reported Jul 12 4:00 PM — Jul 27 4:00 PM, Granby, Weather by CustomWeather, © 2016

Note: Actual official high and low records may vary slightly from our data, if they occured in-between our weather recording intervals... More about our weather records

Advertising

Granby Weather History for the Previous 24 Hours

Scroll right to see more
 ConditionsComfort  
Time TempWeatherWind HumidityBarometerVisibility
4:00 PM
Wed, Jul 27
84 °FWarm.5 mph46%29.85 "HgN/A
3:00 PM84 °FWarm.5 mph47%29.87 "HgN/A
2:00 PM83 °FWarm.5 mph48%29.88 "HgN/A
1:00 PM82 °FWarm.3 mph48%29.90 "HgN/A
12:00 PM81 °FWarm.5 mph53%29.91 "HgN/A
11:00 AM78 °FWarm.7 mph63%29.92 "HgN/A
10:00 AM76 °FMild.6 mph68%29.93 "HgN/A
9:00 AM72 °FMild.7 mph74%29.92 "HgN/A
8:00 AM70 °FMild.6 mph78%29.92 "HgN/A
7:00 AM66 °FMild.3 mph87%29.91 "HgN/A
6:00 AM64 °FMild.5 mph92%29.91 "HgN/A
5:00 AM63 °FMild.5 mph93%29.90 "HgN/A
4:00 AM64 °FMild.6 mph90%29.91 "HgN/A
3:00 AM64 °FMild.3 mph94%29.91 "HgN/A
2:00 AM65 °FMild.3 mph91%29.90 "HgN/A
1:00 AM65 °FMild.3 mph91%29.90 "HgN/A
12:00 AM66 °FMild.2 mph89%29.90 "HgN/A
11:00 PM
Tue, Jul 26
67 °FMild.1 mph86%29.90 "HgN/A
10:00 PM68 °FMild.2 mph83%29.90 "HgN/A
9:00 PM69 °FMild.1 mph79%29.88 "HgN/A
8:00 PM72 °FMild.1 mph69%29.87 "HgN/A
7:00 PM76 °FMild.3 mph60%29.86 "HgN/A
6:00 PM77 °FWarm.5 mph55%29.86 "HgN/A
5:00 PM76 °FMild.3 mph66%29.85 "HgN/A
Weather by CustomWeather, © 2016

See weather overviewHow to use our weather pages